Meteo orario Abapo

Oggi, 24 Giugno, Giovedi

Tempo Temperatura Precipitazioni Vento Pressione Umidità
00:00 +20°C° 0 mm 1 m/s 705 mm Hg 81%
01:00 +20°C° 0 mm 1 m/s 705 mm Hg 84%
02:00 +19°C° 0 mm 1 m/s 705 mm Hg 87%
03:00 +19°C° 0 mm 1 m/s 705 mm Hg 87%
04:00 +19°C° 0 mm 1 m/s 705 mm Hg 87%
05:00 +18°C° 0 mm 1 m/s 705 mm Hg 88%
06:00 +19°C° 0 mm 1 m/s 707 mm Hg 83%
07:00 +19°C° 0 mm 2 m/s 708 mm Hg 78%
08:00 +20°C° 0 mm 2 m/s 709 mm Hg 73%
09:00 +23°C° 0 mm 2 m/s 710 mm Hg 64%
10:00 +26°C° 0 mm 2 m/s 711 mm Hg 56%
11:00 +28°C° 0 mm 3 m/s 712 mm Hg 47%
12:00 +29°C° 0 mm 3 m/s 711 mm Hg 45%
13:00 +29°C° 0 mm 3 m/s 711 mm Hg 43%
14:00 +29°C° 0 mm 3 m/s 710 mm Hg 41%
15:00 +28°C° 0 mm 3 m/s 710 mm Hg 43%
16:00 +27°C° 0 mm 3 m/s 710 mm Hg 45%
17:00 +27°C° 0 mm 3 m/s 710 mm Hg 47%
18:00 +25°C° 0 mm 2 m/s 710 mm Hg 51%
19:00 +24°C° 0 mm 2 m/s 711 mm Hg 54%
20:00 +22°C° 0 mm 1 m/s 712 mm Hg 58%
21:00 +22°C° 0 mm 1 m/s 712 mm Hg 59%
22:00 +21°C° 0 mm 1 m/s 712 mm Hg 60%
23:00 +21°C° 0 mm 1 m/s 712 mm Hg 62%

Domani, 25 Giugno, Venerdi

Tempo Temperatura Precipitazioni Vento Pressione Umidità
00:00 +18°C° 0 mm 0 m/s 711 mm Hg 63%
01:00 +18°C° 0 mm 0 m/s 711 mm Hg 63%
02:00 +17°C° 0 mm 0 m/s 710 mm Hg 64%
03:00 +17°C° 0 mm 0 m/s 710 mm Hg 65%
04:00 +17°C° 0 mm 0 m/s 710 mm Hg 65%
05:00 +17°C° 0 mm 0 m/s 710 mm Hg 65%
06:00 +17°C° 0 mm 0 m/s 710 mm Hg 62%
07:00 +18°C° 0 mm 0 m/s 711 mm Hg 58%
08:00 +18°C° 0 mm 0 m/s 711 mm Hg 55%
09:00 +22°C° 0 mm 1 m/s 711 mm Hg 51%
10:00 +24°C° 0 mm 2 m/s 711 mm Hg 47%
11:00 +26°C° 0 mm 2 m/s 710 mm Hg 43%
12:00 +28°C° 0 mm 3 m/s 709 mm Hg 42%
13:00 +30°C° 0 mm 3 m/s 708 mm Hg 40%
14:00 +34°C° 0 mm 3 m/s 706 mm Hg 39%
15:00 +33°C° 0 mm 3 m/s 706 mm Hg 42%
16:00 +32°C° 0 mm 4 m/s 705 mm Hg 44%
17:00 +30°C° 0 mm 4 m/s 705 mm Hg 47%
18:00 +28°C° 0 mm 4 m/s 705 mm Hg 52%
19:00 +27°C° 0 mm 3 m/s 705 mm Hg 57%
20:00 +25°C° 0 mm 3 m/s 706 mm Hg 62%
21:00 +24°C° 0 mm 2 m/s 706 mm Hg 65%
22:00 +23°C° 0 mm 2 m/s 706 mm Hg 69%
23:00 +23°C° 0 mm 2 m/s 706 mm Hg 72%

Dopodomani, 26 Giugno, Sabato

Tempo Temperatura Precipitazioni Vento Pressione Umidità
00:00 +22°C° 0 mm 1 m/s 705 mm Hg 75%
01:00 +21°C° 0 mm 1 m/s 705 mm Hg 78%
02:00 +20°C° 0 mm 1 m/s 704 mm Hg 81%
03:00 +20°C° 0 mm 1 m/s 704 mm Hg 83%
04:00 +20°C° 0 mm 1 m/s 704 mm Hg 84%
05:00 +20°C° 0 mm 1 m/s 704 mm Hg 85%
06:00 +20°C° 0 mm 1 m/s 704 mm Hg 81%
07:00 +21°C° 0 mm 1 m/s 705 mm Hg 76%
08:00 +22°C° 0 mm 1 m/s 706 mm Hg 72%
09:00 +26°C° 0 mm 1 m/s 706 mm Hg 60%
10:00 +29°C° 0 mm 1 m/s 706 mm Hg 48%
11:00 +33°C° 0 mm 1 m/s 706 mm Hg 36%
12:00 +35°C° 0 mm 2 m/s 706 mm Hg 33%
13:00 +36°C° 0 mm 2 m/s 705 mm Hg 30%
14:00 +38°C° 0 mm 2 m/s 705 mm Hg 27%
15:00 +36°C° 0 mm 3 m/s 705 mm Hg 30%
16:00 +35°C° 0 mm 3 m/s 705 mm Hg 33%
17:00 +34°C° 0 mm 4 m/s 705 mm Hg 36%
18:00 +30°C° 0 mm 4 m/s 706 mm Hg 42%
19:00 +28°C° 0 mm 4 m/s 708 mm Hg 47%
20:00 +26°C° 0 mm 5 m/s 709 mm Hg 53%
21:00 +23°C° 0.1 mm 4 m/s 711 mm Hg 58%
22:00 +21°C° 0.1 mm 3 m/s 712 mm Hg 63%
23:00 +19°C° 0.1 mm 2 m/s 713 mm Hg 67%

27 Giugno, Domenica

Tempo Temperatura Precipitazioni Vento Pressione Umidità
00:00 +18°C° 0.3 mm 2 m/s 714 mm Hg 74%
01:00 +17°C° 0.3 mm 2 m/s 714 mm Hg 81%
02:00 +16°C° 0.3 mm 2 m/s 714 mm Hg 88%
03:00 +16°C° 0.2 mm 2 m/s 715 mm Hg 87%
04:00 +14°C° 0.2 mm 3 m/s 715 mm Hg 85%
05:00 +14°C° 0.2 mm 3 m/s 715 mm Hg 84%
06:00 +13°C° 0.2 mm 3 m/s 716 mm Hg 83%
07:00 +13°C° 0.2 mm 3 m/s 717 mm Hg 81%
08:00 +14°C° 0.2 mm 2 m/s 718 mm Hg 80%
09:00 +13°C° 0.3 mm 3 m/s 719 mm Hg 80%
10:00 +13°C° 0.3 mm 3 m/s 719 mm Hg 80%
11:00 +12°C° 0.3 mm 3 m/s 720 mm Hg 80%
12:00 +12°C° 0.1 mm 3 m/s 719 mm Hg 77%
13:00 +12°C° 0.1 mm 3 m/s 719 mm Hg 74%
14:00 +12°C° 0.1 mm 3 m/s 719 mm Hg 71%
15:00 +11°C° 0 mm 3 m/s 719 mm Hg 70%
16:00 +11°C° 0 mm 3 m/s 719 mm Hg 68%
17:00 +11°C° 0 mm 3 m/s 719 mm Hg 66%
18:00 +11°C° 0 mm 3 m/s 720 mm Hg 64%
19:00 +10°C° 0 mm 3 m/s 720 mm Hg 62%
20:00 +10°C° 0 mm 3 m/s 721 mm Hg 60%
21:00 +10°C° 0 mm 3 m/s 721 mm Hg 58%
22:00 +10°C° 0 mm 3 m/s 722 mm Hg 56%
23:00 +10°C° 0 mm 3 m/s 722 mm Hg 54%

28 Giugno, Lunedi

Tempo Temperatura Precipitazioni Vento Pressione Umidità
00:00 +10°C° 0 mm 3 m/s 722 mm Hg 51%
01:00 +10°C° 0 mm 3 m/s 722 mm Hg 48%
02:00 +11°C° 0 mm 3 m/s 721 mm Hg 45%
03:00 +10°C° 0 mm 3 m/s 721 mm Hg 44%
04:00 +10°C° 0 mm 3 m/s 721 mm Hg 43%
05:00 +10°C° 0 mm 3 m/s 721 mm Hg 41%
06:00 +10°C° 0 mm 3 m/s 722 mm Hg 40%
07:00 +11°C° 0 mm 3 m/s 722 mm Hg 38%
08:00 +11°C° 0 mm 3 m/s 723 mm Hg 36%
09:00 +11°C° 0 mm 3 m/s 723 mm Hg 34%
10:00 +11°C° 0 mm 3 m/s 723 mm Hg 31%
11:00 +11°C° 0 mm 3 m/s 723 mm Hg 29%
12:00 +12°C° 0 mm 3 m/s 722 mm Hg 27%
13:00 +12°C° 0 mm 3 m/s 721 mm Hg 26%
14:00 +12°C° 0 mm 3 m/s 721 mm Hg 24%
15:00 +13°C° 0 mm 2 m/s 720 mm Hg 25%
16:00 +13°C° 0 mm 2 m/s 720 mm Hg 25%
17:00 +13°C° 0 mm 2 m/s 720 mm Hg 26%
18:00 +12°C° 0 mm 2 m/s 720 mm Hg 27%
19:00 +12°C° 0 mm 1 m/s 721 mm Hg 29%
20:00 +11°C° 0 mm 1 m/s 721 mm Hg 31%
21:00 +11°C° 0 mm 1 m/s 721 mm Hg 31%
22:00 +11°C° 0 mm 1 m/s 721 mm Hg 31%
23:00 +11°C° 0 mm 1 m/s 721 mm Hg 31%

29 Giugno, Martedi

Tempo Temperatura Precipitazioni Vento Pressione Umidità
00:00 +11°C° 0 mm 1 m/s 721 mm Hg 31%
01:00 +11°C° 0 mm 1 m/s 721 mm Hg 31%
02:00 +11°C° 0 mm 1 m/s 721 mm Hg 32%
03:00 +11°C° 0 mm 1 m/s 721 mm Hg 32%
04:00 +10°C° 0 mm 2 m/s 721 mm Hg 33%
05:00 +10°C° 0 mm 2 m/s 721 mm Hg 33%
06:00 +10°C° 0 mm 2 m/s 721 mm Hg 33%
07:00 +10°C° 0 mm 2 m/s 721 mm Hg 34%
08:00 +10°C° 0 mm 2 m/s 722 mm Hg 34%
09:00 +13°C° 0 mm 2 m/s 722 mm Hg 31%
10:00 +14°C° 0 mm 2 m/s 722 mm Hg 28%
11:00 +16°C° 0 mm 2 m/s 722 mm Hg 25%
12:00 +17°C° 0 mm 2 m/s 721 mm Hg 22%
13:00 +19°C° 0 mm 2 m/s 720 mm Hg 20%
14:00 +20°C° 0 mm 2 m/s 719 mm Hg 17%
15:00 +20°C° 0 mm 2 m/s 719 mm Hg 18%
16:00 +19°C° 0 mm 2 m/s 719 mm Hg 19%
17:00 +18°C° 0 mm 2 m/s 718 mm Hg 19%
18:00 +15°C° 0 mm 2 m/s 719 mm Hg 24%
19:00 +12°C° 0 mm 1 m/s 719 mm Hg 29%
20:00 +9°C° 0 mm 1 m/s 719 mm Hg 34%
21:00 +8°C° 0 mm 1 m/s 719 mm Hg 37%
22:00 +8°C° 0 mm 1 m/s 719 mm Hg 39%
23:00 +7°C° 0 mm 1 m/s 719 mm Hg 41%
Mostrare altro

Abbiamo bisogno del tuo consenso

Meteoprog e i nostri fornitori di servizi possono memorizzare e accedere a dati personali come cookie, identificatori di dispositivi o altre tecnologie simili sul tuo dispositivo e possono elaborare tali dati per personalizzare i contenuti e gli annunci, nonché fornire funzionalità dei social media e analizzarne il traffico.

  • Archiviare e/o accedere alle informazioni sul tuo dispositivo

    Cookie, identificatori di dispositivi o altre informazioni possono essere memorizzati o resi accessibili sul tuo dispositivo per le finalità sopra indicate.

  • Annunci e contenuti personalizzati, misurazione di annunci e contenuti, approfondimenti sul pubblico e sviluppo di prodotti

    Gli annunci e i contenuti possono essere personalizzati in base a un profilo. È possibile aggiungere più dati per personalizzare meglio annunci e contenuti. È possibile misurare il rendimento degli annunci e dei contenuti. È possibile ricavare informazioni sul pubblico che ha visto gli annunci e i contenuti. Tali dati possono essere utilizzati per sviluppare o migliorare l'esperienza, i sistemi e il software dell'utente.

Cliccando su “Accetto”, acconsenti all'uso di cookie, identificatori di dispositivo, web beacon o altre tecnologie simili. Puoi modificare le impostazioni nel browser del tuo dispositivo.

Per determinati scopi, è possibile fare affidamento su interessi legali, piuttosto che sul consenso. Puoi approfondire questo argomento consultando la nostra Informativa sulla privacy e sui cookie.